User: anonymous   Login
Location: Agua Amarilla
(10.0342°N, 66.8490°W)
Time: 01:23:14
(UTC+00:00)
Language:

Cosmos 2266 Rocket - Orbit

View from above orbital plane
View from above orbital plane
View from above satellite
View from above satellite

Ground track
Ground track

The orbit data is extracted from the following two-line orbital elements,

1 22889U 93070B   22269.44938126  .00000039  00000-0  23550-4 0  9997
2 22889  82.9461 323.7344 0048958 225.8268 133.8862 13.77986704452794
Epoch (UTC): 26 September 2022 10:47:06
Eccentricity: 0.0048958
inclination: 82.9461°
perigee height: 935 km
apogee height: 1007 km
right ascension of ascending node: 323.7344°
argument of perigee: 225.8268°
revolutions per day: 13.77986704
mean anomaly at epoch: 133.8862°
orbit number at epoch: 45279

The dashed part of the orbit path shows where the satellite is in the earth's shadow,  

DLR